Find MEV-2

NORAD ID: 46113 Int'l Des: 2020-056 Owner: SPLOG Country: US operational
HEOCIRCULARGSOGEO

实时位置

正在加载3D地球...

关于 MEV-2

正在加载描述...

即将过境

Passes for default location (London). Set your location on the main map for personalized predictions.

高度历史

Loading altitude history...

两行轨道根数

1 46113U 20056B 26103.87340525 -.00000007 00000-0 00000-0 0 9992
2 46113 0.0419 58.0216 0001919 22.4297 75.0410 1.00271643 79905
Epoch: Apr 13, 2026 • Age: 20 hours

当前状态

高度 35778.1 km
速度 3.08 km/s
星下点 -0.02°S, 0.99°W
发射日期 Aug 15, 2020
运行时间 5.6 years
类型 other

技术详情

分类 Payload
质量 2326.00 kg
干质量 2000.00 kg
总质量 2326.00 kg
长度 5.00 m
直径 2.50 m
跨度 25.00 m
形状 Box + 2 pan
制造商 NGISD
平台类型 Geostar-3
阶段状态 Docked
所有者/国家 SPLOG/US

Most Searched